TimeEET,TemperatureF,Dew PointF,Humidity,Sea Level PressureIn,VisibilityMPH,Wind Direction,Wind SpeedMPH,Gust SpeedMPH,PrecipitationIn,Events,Conditions,WindDirDegrees,DateUTC
4:50 AM,57.2,55.4,94,30.06,3.1,Calm,Calm,-,N/A,,Partly Cloudy,0,2012-11-16 02:50:00
5:20 AM,57.2,55.4,94,30.06,3.7,Calm,Calm,-,N/A,,Partly Cloudy,0,2012-11-16 03:20:00
5:50 AM,57.2,55.4,94,30.06,3.7,Calm,Calm,-,N/A,,Partly Cloudy,0,2012-11-16 03:50:00
6:20 AM,57.2,55.4,94,30.06,4.3,Calm,Calm,-,N/A,,Partly Cloudy,0,2012-11-16 04:20:00
6:50 AM,57.2,55.4,94,30.09,4.3,Calm,Calm,-,N/A,,Scattered Clouds,0,2012-11-16 04:50:00
7:20 AM,57.2,55.4,94,30.09,5.0,Calm,Calm,-,N/A,,Scattered Clouds,0,2012-11-16 05:20:00
7:50 AM,57.2,53.6,88,30.09,6.2,Calm,Calm,-,N/A,,Scattered Clouds,0,2012-11-16 05:50:00
8:00 AM,57,54,87,30.11,6,Calm,Calm,,,,Scattered Clouds,,2012-11-16 06:00:00
8:20 AM,57.2,53.6,88,30.09,6.2,NNE,4.6,-,N/A,,Scattered Clouds,20,2012-11-16 06:20:00
8:50 AM,59.0,53.6,82,30.09,6.2,Calm,Calm,-,N/A,,Scattered Clouds,0,2012-11-16 06:50:00
9:20 AM,60.8,53.6,77,30.09,6.2,Variable,3.5,-,N/A,,Scattered Clouds,0,2012-11-16 07:20:00
9:50 AM,66.2,57.2,73,30.12,6.2,Variable,4.6,-,N/A,,Scattered Clouds,0,2012-11-16 07:50:00
10:20 AM,69.8,55.4,60,30.12,6.2,Variable,4.6,-,N/A,,Scattered Clouds,0,2012-11-16 08:20:00
10:50 AM,69.8,53.6,56,30.12,6.2,Variable,4.6,-,N/A,,Scattered Clouds,0,2012-11-16 08:50:00
11:50 AM,69.8,53.6,56,30.09,6.2,South,6.9,-,N/A,,Scattered Clouds,180,2012-11-16 09:50:00
12:20 PM,71.6,51.8,50,30.09,6.2,South,6.9,-,N/A,,Scattered Clouds,180,2012-11-16 10:20:00
12:50 PM,71.6,55.4,57,30.09,6.2,Calm,Calm,-,N/A,,Mostly Cloudy,0,2012-11-16 10:50:00
1:20 PM,71.6,55.4,57,30.09,6.2,Calm,Calm,-,N/A,,Mostly Cloudy,0,2012-11-16 11:20:00
1:50 PM,71.6,53.6,53,30.06,6.2,Calm,Calm,-,N/A,,Mostly Cloudy,0,2012-11-16 11:50:00
2:00 PM,72,54,43,30.08,6,Calm,Calm,,,,Scattered Clouds,,2012-11-16 12:00:00
2:20 PM,71.6,53.6,53,30.06,6.2,Calm,Calm,-,N/A,,Mostly Cloudy,0,2012-11-16 12:20:00
2:50 PM,71.6,53.6,53,30.06,6.2,Calm,Calm,-,N/A,,Mostly Cloudy,0,2012-11-16 12:50:00
3:20 PM,71.6,53.6,53,30.06,6.2,Calm,Calm,-,N/A,,Mostly Cloudy,0,2012-11-16 13:20:00
3:50 PM,69.8,53.6,56,30.06,6.2,Calm,Calm,-,N/A,,Mostly Cloudy,0,2012-11-16 13:50:00
4:20 PM,68.0,53.6,60,30.06,6.2,Calm,Calm,-,N/A,,Mostly Cloudy,0,2012-11-16 14:20:00
4:50 PM,66.2,57.2,73,30.06,6.2,Calm,Calm,-,N/A,,Mostly Cloudy,0,2012-11-16 14:50:00
5:20 PM,66.2,57.2,73,30.06,6.2,Calm,Calm,-,N/A,,Mostly Cloudy,0,2012-11-16 15:20:00
5:50 PM,66.2,57.2,73,30.06,6.2,Calm,Calm,-,N/A,,Mostly Cloudy,0,2012-11-16 15:50:00
6:20 PM,64.4,57.2,77,30.06,6.2,Calm,Calm,-,N/A,,Mostly Cloudy,0,2012-11-16 16:20:00
6:50 PM,64.4,55.4,73,30.06,6.2,Calm,Calm,-,N/A,,Mostly Cloudy,0,2012-11-16 16:50:00
7:20 PM,64.4,57.2,77,30.06,6.2,Calm,Calm,-,N/A,,Mostly Cloudy,0,2012-11-16 17:20:00
7:50 PM,62.6,55.4,77,30.06,6.2,Calm,Calm,-,N/A,,Mostly Cloudy,0,2012-11-16 17:50:00
8:00 PM,63,56,70,30.07,6,Calm,Calm,,,,Scattered Clouds,,2012-11-16 18:00:00